Skip Page Navigation
NASA JPL Caltech
NASA Logo - Jet Propulsion Laboratory + View the NASA Portal
+ Center for Near-Earth Object Studies
JPL Home Earth Solar System Stars & Galaxies Technology
JPL Solar System Dynamics
BODIES ORBITS EPHEMERIDES TOOLS PHYSICAL DATA DISCOVERY FAQ SITE MAP
IMPORTANT: The SSD Announcement email list is now available. Major changes are coming in the near future, including possible hostname and/or URL changes. To be notified of such changes, subscribe to this email list.

Please visit this page for more details.


JPL Small-Body Database Browser
Search: [ help ]  
441006 (2007 DL96)
Classification: Main-belt Asteroid          SPK-ID: 2441006
Ephemeris | Orbit Diagram | Orbital Elements | Mission Design | Physical Parameters | Discovery Circumstances ]

[ show orbit diagram ]
Orbital Elements at Epoch 2458600.5 (2019-Apr-27.0) TDB
Reference: JPL 16 (heliocentric ecliptic J2000)
 Element Value Uncertainty (1-sigma)   Units 
e .1882787210759655 8.804e-08  
a 2.372777856402493 3.4223e-08 au
q 1.92603427620166 1.9771e-07 au
i 5.465601808680691 1.4129e-05 deg
node 337.5117800091427 6.4055e-05 deg
peri 279.3497710633515 8.0074e-05 deg
M 50.07341287026022 4.5819e-05 deg
tp 2458414.809904348202
(2018-Oct-23.30990435)
0.00016827 TDB
period 1335.008552499724
3.66
2.8882e-05
7.907e-08
d
yr
n .2696611937997861 5.834e-09 deg/d
Q 2.819521436603325 4.0666e-08 au
  Orbit Determination Parameters
   # obs. used (total)      81  
   data-arc span      5582 days (15.28 yr)  
   first obs. used      2004-07-16  
   last obs. used      2019-10-28  
   planetary ephem.      DE431  
   SB-pert. ephem.      SB431-N16  
   condition code      0  
   norm. resid. RMS      .55866  
   source      ORB  
   producer      Otto Matic  
   solution date      2019-Nov-08 15:55:17  

Additional Information
 Earth MOID = .920092 au 
 Jupiter MOID = 2.27264 au 
 T_jup = 3.513 
[ show covariance matrix ]

Ephemeris | Orbit Diagram | Orbital Elements | Mission Design | Physical Parameters | Discovery Circumstances ]

Physical Parameter Table
Parameter Symbol Value Units Sigma Reference Notes
absolute magnitude H 17.7   n/a MPO446749  

441006 (2007 DL96)          Discovered 2007-Feb-23 by Mt. Lemmon Survey at Mount Lemmon
Reference: Last Updated: 2015-09-02
Ephemeris | Orbit Diagram | Orbital Elements | Mission Design | Physical Parameters | Discovery Circumstances ]
ABOUT SSD CREDITS/AWARDS PRIVACY/COPYRIGHT GLOSSARY LINKS
FirstGov
(server date/time)  
NASA Home Page
Site Manager:   Ryan S. Park
Webmaster  Alan B. Chamberlin